Погода в Капустинцах

Украина / Сумская область     50°37′25″N   34°08′48″E
В апреле 2022 года жителям России запретили посещать сайт meteo.paraplan.net по решению Генеральной прокуратуры. Аудитория сайта уменьшилась в 10 раз. Владельцы сайта не видят смысла в поддержке погодного сервера в таких условиях. Сайт будет закрыт в октябре.
темп.,
°C
ветер,
м/с
пор.,
м/с
влажн.,
%
обл.,
%
осадки,
мм/ч
давл.,
гПа
погр.,
м
4 октября, вт
вт400:00+10ю81471100 0.0 1004913
03:00+10ююз81481100 0.1 1005870
06:00+8юз51084100 1.0 1007883
09:00+9юз61081100 1.0 1009947
12:00+9юз71079100 0.3 10101051
15:00+10юз71176100 0.7 10121265
18:00+9зюз61082100 0.2 1014764
21:00+9юз6118379 0.3 1015577
5 октября, ср
ср500:00+9юз61186100 0.1 1015669
03:00+9зюз61188100 0.6 1016678
06:00+8зюз5108897 0.2 1017471
09:00+9з71186100 0.7 1019815
12:00+9з6982100 0.1 10211031
15:00+12зсз796380 0.1 10221398
18:00+10з3883100 0.1 1023437
21:00+8зюз3692100 0.1 1024160
6 октября, чт
чт600:00+9зюз3887100 0.0 1024249
03:00+8зюз3692100 0.0 1024115
06:00+8юз3793100 0.0 1024140
09:00+11зюз478299 0.0 1024277
12:00+15зюз576038 0.0 1023835
15:00+13зюз4770100 0.0 1023467
18:00+12ююз33775 0.0 102327
21:00+11зюз34805 0.0 102457
7 октября, пт
пт700:00+10зюз348467 0.0 102461
03:00+9з349177 0.0 102455
06:00+9зсз359330 0.0 102581
09:00+12ссз488528 0.0 1026277
12:00+16ссз566622 0.0 1026748
15:00+17с565585 0.0 10261004
18:00+13с346851 0.0 102755
21:00+10ссв347564 0.0 102750
8 октября, сб
сб800:00+9св33840 0.0 102836
03:00+8всв33880 0.0 102731
06:00+7всв22890 0.0 102726
09:00+10в34775 0.0 1026182
12:00+16вюв34635 0.0 1025694
15:00+17юв33579 0.0 10221118
18:00+14в227473 0.0 102215
21:00+15юв2267100 0.0 102135